Location: Doux
(49.5045°N, 4.4321°E)
Time: 13:32:11
(UTC+00:00)

Sich 1 Rocket - Pass Details

Date: 23 May 2024
Orbit: 613 x 650 km, 82.5° (Epoch: 16 June)

Event Time Altitude Azimuth Distance (km) Brightness Sun altitude
Rises 02:31:15 0° 350° (N) 2,962 7.7 -10.1°
Reaches altitude 10° 02:33:31 10° 352° (N) 2,042 6.8 -9.9°
Maximum altitude 02:38:04 80° 80° (E) 650 3.7 -9.4°
Drops below altitude 10° 02:42:30 10° 168° (SSE) 2,002 5.8 -8.9°
Sets 02:44:43 0° 169° (S) 2,899 6.7 -8.7°
